Find Local Weather

World > North America > United States > Michigan

Harbor Beach, Michigan Regional Weather

Lat: 43.85N, Lon: 82.65W
Wx Zone: MIZ049
Warning FLW WEATHER ALERT - (More Info. Click Here) Warning
Feedback
Expires:201808180300;;231408
ASUS43 KDTX 180210
RWRMI 
MICHIGAN HOURLY REGIONAL WEATHER ROUNDUP
NATIONAL WEATHER SERVICE DETROIT/PONTIAC MI
ISSUED BY NATIONAL WEATHER SERVICE GRAND RAPIDS MI
1000 PM EDT FRI AUG 17 2018

NOTE: "FAIR" INDICATES FEW OR NO CLOUDS BELOW 12,000 FEET WITH NO
SIGNIFICANT WEATHER AND/OR OBSTRUCTION TO VISIBILITY.


MIZ047>049-052>055-059>063-066>070-074>076-081>083-180300-
SOUTHEAST LOWER MICHIGAN
  
CITY           SKY/WX    TMP DP  RH WIND       PRES   REMARKS
ADRIAN         CLOUDY    69  68  96 W3        29.98R                  
ALMA           FAIR      72  72 100 CALM      29.98R FOG              
ANN ARBOR      CLOUDY    72  69  90 W5        29.96R                  
BAD AXE        FAIR      69  65  88 N5        29.94S                  
DETROIT CITY   LGT RAIN  74  69  85 N5        29.94R                  
DETROIT        CLOUDY    74  68  81 N5        29.94R                  
FLINT          FAIR      72  69  90 NW8       29.96R                  
GROSSE ILE     CLOUDY    73  72  94 N3        29.93R                  
HILLSDALE      CLOUDY    70  68  94 W3        30.00R FOG              
HOWELL         FAIR      72  68  88 NW3       29.98R                  

CITY           SKY/WX    TMP DP  RH WIND       PRES   REMARKS
JACKSON        MOCLDY    71  70  96 W3        29.99R                  
LANSING        FAIR      71  70  96 NW3       29.99R FOG              
MASON          MOCLDY    73  69  88 NW3       29.98S                  
MONROE         MOCLDY    70  68  93 W7        29.94R FOG              
MT. CLEMENS    CLOUDY    72  72 100 N5        29.94R                  
PONTIAC        CLOUDY    73  70  90 N7        29.94S                  
PORT HOPE        N/A     75  69  81 NW5       29.93R                  
PORT HURON     HVY RAIN  70  68  94 CALM      29.94R                  
TRI CITIES     MOCLDY    73  72  96 NW6       29.97R                  
YPSILANTI      CLOUDY    75  71  87 NW6       29.95R                  
$$

SKY/WX - Weather  TMP - Temperature  DP - Dewpoint  RH - Relative Humidity
WIND - Wind Direction/Speed PRES - Barometric Pressure